This is the latest recevied weather packets stored in our database for station/object VK3HAG. If no packets are shown the sender has not sent any weather packets the latest 10 day(s).
| Time | Temp. | Humidity | Pressure | Rain* | Wind** | Luminosity | Snow |
|---|---|---|---|---|---|---|---|
| 1787416204 | 3.33° C | 91% | 1024.9 hPa | 0 mm | - | - | - |
| 1787415304 | 3.33° C | 91% | 1024.9 hPa | 0 mm | - | - | - |
| 1787414404 | 3.89° C | 92% | 1025.1 hPa | 0 mm | - | - | - |
| 1787413504 | 3.89° C | 91% | 1025.2 hPa | 0 mm | - | - | - |
| 1787412604 | 3.89° C | 91% | 1025.4 hPa | 0 mm | - | - | - |
| 1787411704 | 4.44° C | 91% | 1025.3 hPa | 0 mm | - | - | - |
| 1787410805 | 4.44° C | 91% | 1025.3 hPa | 0 mm | - | - | - |
| 1787409904 | 4.44° C | 91% | 1025.3 hPa | 0 mm | - | - | - |
| 1787409004 | 5° C | 91% | 1025.2 hPa | 0 mm | - | - | - |
| 1787408105 | 5° C | 91% | 1025.2 hPa | 0 mm | - | - | - |
| 1787407216 | 5.56° C | 90% | 1025.3 hPa | 0 mm | - | - | - |
| 1787406304 | 5.56° C | 91% | 1025.3 hPa | 0 mm | - | - | - |
| 1787405405 | 5° C | 89% | 1025.4 hPa | 0 mm | - | - | - |
| 1787404505 | 5.56° C | 89% | 1025.3 hPa | 0 mm | - | - | - |
| 1787403605 | 6.11° C | 89% | 1025.3 hPa | 0 mm | - | - | - |
| 1787402704 | 6.11° C | 88% | 1025.2 hPa | 0 mm | - | - | - |
| 1787401804 | 6.67° C | 88% | 1025.2 hPa | 0 mm | - | - | - |
| 1787400904 | 7.22° C | 88% | 1025.3 hPa | 0 mm | - | - | - |
| 1787400005 | 7.78° C | 88% | 1025.2 hPa | 0 mm | - | - | - |
| 1787399105 | 7.78° C | 88% | 1025.3 hPa | 0 mm | - | - | - |
| 1787398205 | 8.33° C | 88% | 1025.2 hPa | 0 mm | - | - | - |
| 1787397304 | 8.33° C | 87% | 1025.2 hPa | 0 mm | - | - | - |
| 1787396404 | 8.33° C | 87% | 1025.1 hPa | 0 mm | - | - | - |
| 1787395504 | 8.89° C | 85% | 1024.9 hPa | 0 mm | - | - | - |
| 1787394604 | 9.44° C | 84% | 1024.8 hPa | 0 mm | - | - | - |
* Rain latest hour (hover to see other rain measurements)
** Current wind speed in m/s (hover to see current wind gust speed)